GLD1134 SSKG-SBCG

Flight info

Callsign GLD1134
Flight time 0h -12m
Altitude 3000
Route 2041S05426W REA 2044S05432W/N0140F050 IFR DCT GRD
Aircraft C182/L-S/C

Departure

Time 2026-05-07 01:41
Airport Estância Santa Maria Airport (SSKG)

Arrival

Time 2026-05-07 01:29
Airport Campo Grande Airport (SBCG)
Time Latitude Longitude Altitude Speed Heading
2026-05-07 01:29 -20.50639 -54.52411 2050 ft 0 kts 27°
2026-05-07 01:35 -20.50632 -54.52407 2050 ft 4 kts 27°
2026-05-07 01:36 -20.50589 -54.52435 2050 ft 12 kts 321°
2026-05-07 01:36 -20.50599 -54.52520 2052 ft 16 kts 229°
2026-05-07 01:36 -20.50677 -54.52617 2050 ft 18 kts 229°
2026-05-07 01:36 -20.50763 -54.52724 2050 ft 20 kts 231°
2026-05-07 01:37 -20.50850 -54.52833 2050 ft 19 kts 230°
2026-05-07 01:37 -20.50890 -54.52901 2050 ft 2 kts 295°
2026-05-07 01:39 -20.50887 -54.52907 2050 ft 4 kts 299°
2026-05-07 01:40 -20.50848 -54.52930 2050 ft 9 kts 30°
2026-05-07 01:40 -20.50767 -54.52834 2050 ft 37 kts 49°
2026-05-07 01:40 -20.50493 -54.52494 2057 ft 81 kts 50°
2026-05-07 01:40 -20.50080 -54.51993 2198 ft 97 kts 49°
2026-05-07 01:41 -20.49624 -54.51427 2342 ft 102 kts 50°
2026-05-07 01:41 -20.49160 -54.50829 2474 ft 107 kts 37°
2026-05-07 01:41 -20.48420 -54.50827 2569 ft 120 kts 329°
2026-05-07 01:41 -20.48055 -54.51634 2719 ft 129 kts 278°
2026-05-07 01:42 -20.48279 -54.52574 2861 ft 136 kts 242°
2026-05-07 01:42 -20.48948 -54.53285 2964 ft 138 kts 210°
2026-05-07 01:42 -20.49865 -54.53603 2997 ft 141 kts 181°
2026-05-07 01:42 -20.50825 -54.53466 2998 ft 142 kts 154°
2026-05-07 01:43 -20.51642 -54.52900 3006 ft 138 kts 128°
2026-05-07 01:43 -20.52123 -54.52068 3011 ft 129 kts 106°
2026-05-07 01:43 -20.52790 -54.51406 2988 ft 139 kts 154°
2026-05-07 01:43 -20.53713 -54.51060 2995 ft 141 kts 155°
2026-05-07 01:44 -20.54632 -54.50712 2990 ft 140 kts 155°
2026-05-07 01:44 -20.55548 -54.50367 2992 ft 139 kts 155°
2026-05-07 01:44 -20.56475 -54.50020 2992 ft 143 kts 155°
2026-05-07 01:44 -20.57416 -54.49674 3001 ft 144 kts 156°
2026-05-07 01:45 -20.58352 -54.49324 2996 ft 143 kts 155°
2026-05-07 01:45 -20.59288 -54.48972 3001 ft 143 kts 155°
2026-05-07 01:45 -20.60225 -54.48621 2993 ft 142 kts 155°
2026-05-07 01:45 -20.61161 -54.48269 2990 ft 143 kts 155°
2026-05-07 01:46 -20.62094 -54.47918 2993 ft 143 kts 155°
2026-05-07 01:46 -20.63038 -54.47560 2988 ft 143 kts 155°
2026-05-07 01:46 -20.63971 -54.47212 2986 ft 141 kts 155°
2026-05-07 01:46 -20.64900 -54.46867 2984 ft 143 kts 155°
2026-05-07 01:47 -20.65842 -54.46518 2982 ft 143 kts 155°
2026-05-07 01:47 -20.66783 -54.46171 2984 ft 144 kts 155°
2026-05-07 01:47 -20.67733 -54.45823 2979 ft 144 kts 159°
2026-05-07 01:47 -20.68738 -54.45976 2964 ft 154 kts 207°
2026-05-07 01:48 -20.69427 -54.46801 3058 ft 148 kts 248°
2026-05-07 01:48 -20.69554 -54.47842 3176 ft 139 kts 283°
2026-05-07 01:48 -20.69427 -54.48857 3304 ft 139 kts 283°
2026-05-07 01:48 -20.69310 -54.49892 3424 ft 142 kts 283°
2026-05-07 01:49 -20.69197 -54.50924 3541 ft 140 kts 283°
2026-05-07 01:49 -20.69086 -54.51966 3666 ft 143 kts 283°
2026-05-07 01:49 -20.68978 -54.53022 3786 ft 141 kts 282°
2026-05-07 01:49 -20.68872 -54.54055 3906 ft 140 kts 283°
2026-05-07 01:50 -20.68765 -54.55079 4025 ft 138 kts 282°
2026-05-07 01:50 -20.68659 -54.56113 4150 ft 142 kts 283°
2026-05-07 01:50 -20.68551 -54.57163 4275 ft 142 kts 282°
2026-05-07 01:50 -20.68445 -54.58216 4392 ft 141 kts 283°
2026-05-07 01:51 -20.68340 -54.59248 4520 ft 139 kts 282°
2026-05-07 01:51 -20.68234 -54.60266 4631 ft 141 kts 283°
2026-05-07 01:51 -20.68128 -54.61298 4754 ft 139 kts 282°
2026-05-07 01:51 -20.68023 -54.62320 4875 ft 138 kts 283°
2026-05-07 01:52 -20.67917 -54.63348 4964 ft 142 kts 283°
2026-05-07 01:52 -20.67805 -54.64420 4985 ft 149 kts 282°
2026-05-07 01:52 -20.67691 -54.65536 4992 ft 153 kts 282°
2026-05-07 01:52 -20.67574 -54.66677 4996 ft 156 kts 282°
2026-05-07 01:53 -20.67457 -54.67819 4990 ft 152 kts 282°
2026-05-07 01:53 -20.67344 -54.68926 4989 ft 150 kts 282°
2026-05-07 01:53 -20.67231 -54.70026 4989 ft 149 kts 282°
2026-05-07 01:53 -20.67116 -54.71128 4988 ft 149 kts 282°
2026-05-07 01:54 -20.66953 -54.72205 4970 ft 144 kts 296°
2026-05-07 01:54 -20.66388 -54.73044 4847 ft 137 kts 320°
2026-05-07 01:54 -20.65730 -54.73790 4728 ft 138 kts 319°
2026-05-07 01:54 -20.65079 -54.74549 4609 ft 139 kts 319°
2026-05-07 01:55 -20.64433 -54.75299 4490 ft 138 kts 319°
2026-05-07 01:55 -20.63771 -54.76067 4372 ft 141 kts 319°
2026-05-07 01:55 -20.63109 -54.76838 4248 ft 139 kts 318°
2026-05-07 01:55 -20.62458 -54.77600 4127 ft 138 kts 318°
2026-05-07 01:56 -20.61807 -54.78356 4022 ft 137 kts 319°
2026-05-07 01:56 -20.61167 -54.79100 3991 ft 134 kts 320°
2026-05-07 01:56 -20.60383 -54.79556 3990 ft 129 kts 354°
2026-05-07 01:56 -20.59485 -54.79417 3846 ft 134 kts 26°
2026-05-07 01:57 -20.58793 -54.78814 3715 ft 127 kts 42°
2026-05-07 01:57 -20.58145 -54.78177 3568 ft 127 kts 40°
2026-05-07 01:57 -20.57500 -54.77550 3434 ft 121 kts 41°
2026-05-07 01:57 -20.56891 -54.76957 3391 ft 116 kts 41°
2026-05-07 01:58 -20.56325 -54.76407 3386 ft 105 kts 40°
2026-05-07 01:58 -20.55783 -54.75882 3389 ft 106 kts 40°
2026-05-07 01:58 -20.55228 -54.75355 3390 ft 108 kts 39°
2026-05-07 01:58 -20.54664 -54.74818 3397 ft 110 kts 40°
2026-05-07 01:59 -20.54136 -54.74306 3391 ft 96 kts 40°
2026-05-07 01:59 -20.53656 -54.73842 3333 ft 93 kts 40°
2026-05-07 01:59 -20.53161 -54.73364 3156 ft 97 kts 41°
2026-05-07 01:59 -20.52684 -54.72898 3041 ft 92 kts 40°
2026-05-07 02:00 -20.52216 -54.72445 2924 ft 89 kts 40°
2026-05-07 02:00 -20.51770 -54.72013 2808 ft 84 kts 41°
2026-05-07 02:00 -20.51351 -54.71607 2709 ft 80 kts 41°
2026-05-07 02:00 -20.50941 -54.71211 2611 ft 80 kts 41°
2026-05-07 02:01 -20.50521 -54.70804 2508 ft 83 kts 43°
2026-05-07 02:01 -20.50084 -54.70381 2403 ft 86 kts 44°
2026-05-07 02:01 -20.49651 -54.69962 2299 ft 83 kts 41°
2026-05-07 02:01 -20.49228 -54.69552 2192 ft 83 kts 41°
2026-05-07 02:02 -20.48798 -54.69137 2091 ft 85 kts 43°
2026-05-07 02:02 -20.48376 -54.68729 2010 ft 77 kts 44°
2026-05-07 02:02 -20.47987 -54.68349 1878 ft 77 kts 43°
2026-05-07 02:02 -20.47629 -54.68004 1834 ft 58 kts 43°
2026-05-07 02:03 -20.47368 -54.67752 1833 ft 46 kts 41°
2026-05-07 02:03 -20.47147 -54.67539 1832 ft 38 kts 44°
2026-05-07 02:03 -20.47028 -54.67424 1832 ft 13 kts 40°
2026-05-07 02:03 -20.46946 -54.67453 1833 ft 15 kts 313°
2026-05-07 02:04 -20.46862 -54.67516 1833 ft 16 kts 18°
2026-05-07 02:04 -20.46773 -54.67435 1833 ft 18 kts 42°
2026-05-07 02:04 -20.46678 -54.67344 1833 ft 18 kts 43°
2026-05-07 02:04 -20.46583 -54.67251 1833 ft 19 kts 41°
2026-05-07 02:05 -20.46484 -54.67156 1833 ft 19 kts 43°
2026-05-07 02:05 -20.46365 -54.67092 1833 ft 20 kts 360°
2026-05-07 02:05 -20.46227 -54.67107 1833 ft 21 kts 354°
2026-05-07 02:05 -20.46083 -54.67123 1833 ft 21 kts 354°
2026-05-07 02:06 -20.45981 -54.67134 1833 ft 12 kts 354°
2026-05-07 02:06 -20.45904 -54.67157 1833 ft 10 kts 297°
2026-05-07 02:06 -20.45919 -54.67208 1833 ft 9 kts 308°
2026-05-07 02:06 -20.45874 -54.67208 1833 ft 5 kts 46°
2026-05-07 02:07 -20.45848 -54.67214 1833 ft 0 kts 313°